User: anonymous   Login
Location: Unspecified
(0.0000°N, 0.0000°E)
Time: 13:47:33
(UTC+00:00)
Language:

P83-1 Hilat - Orbit

View from above orbital plane
View from above orbital plane
View from above satellite
View from above satellite

Ground track
Ground track

The orbit data is extracted from the following two-line orbital elements,

1 14154U 83063A   17111.91433272 +.00000135 +00000-0 +40733-4 0  9997
2 14154 082.0282 020.4746 0039741 318.0950 089.7852 14.36275513767446
Epoch (UTC): 21 April 2017 21:56:38
Eccentricity: 0.0039741
inclination: 82.0282°
perigee height: 742 km
apogee height: 799 km
right ascension of ascending node: 20.4746°
argument of perigee: 318.0950°
revolutions per day: 14.36275513
mean anomaly at epoch: 89.7852°
orbit number at epoch: 76744

The dashed part of the orbit path shows where the satellite is in the earth's shadow,  

DLR